When you browse on this site, cookies collect data to enhance your experience and personalize the content and advertising you see.
Visit our Privacy Policy to learn more. By continuing to use the site, you agree to this use of cookies and data.
  • Em Portugal
  • Lista de países
  • Para 7 dias
  • Temperatura da água
  • Mapas de satélite
  • Mapa do tempo
  • Widgets de tempo
  • user-avatar
    Iniciar Sessão

    Previsão horária em Naftalan

    Hoje, 27 Maio, Segunda-feira

    Tempo Temperatura Precipitação Vento Pressão Humidade
    00:00 +21°C° 0.2 mm 3 m/s 762 mmHg 80%
    01:00 +21°C° 0 mm 3 m/s 762 mmHg 79%
    02:00 +21°C° 0 mm 3 m/s 762 mmHg 79%
    03:00 +21°C° 0 mm 3 m/s 763 mmHg 78%
    04:00 +21°C° 0 mm 3 m/s 763 mmHg 74%
    05:00 +22°C° 0 mm 4 m/s 763 mmHg 69%
    06:00 +22°C° 0 mm 4 m/s 764 mmHg 64%
    07:00 +23°C° 0 mm 4 m/s 764 mmHg 60%
    08:00 +25°C° 0 mm 4 m/s 764 mmHg 55%
    09:00 +26°C° 0 mm 3 m/s 764 mmHg 51%
    10:00 +27°C° 0 mm 4 m/s 764 mmHg 50%
    11:00 +28°C° 0 mm 5 m/s 765 mmHg 49%
    12:00 +28°C° 0 mm 6 m/s 765 mmHg 48%
    13:00 +28°C° 0 mm 6 m/s 765 mmHg 50%
    14:00 +27°C° 0 mm 6 m/s 765 mmHg 52%
    15:00 +27°C° 0 mm 7 m/s 765 mmHg 54%
    16:00 +26°C° 0 mm 6 m/s 765 mmHg 58%
    17:00 +25°C° 0 mm 5 m/s 765 mmHg 61%
    18:00 +23°C° 0 mm 4 m/s 765 mmHg 64%
    19:00 +24°C° 0 mm 3 m/s 766 mmHg 67%
    20:00 +23°C° 0 mm 2 m/s 766 mmHg 71%
    21:00 +23°C° 0 mm 2 m/s 766 mmHg 74%
    22:00 +22°C° 0 mm 1 m/s 766 mmHg 76%
    23:00 +22°C° 0 mm 1 m/s 766 mmHg 77%

    Amanhã, 28 Maio, Terça-feira

    Tempo Temperatura Precipitação Vento Pressão Humidade
    00:00 +22°C° 0 mm 1 m/s 766 mmHg 78%
    01:00 +22°C° 0 mm 1 m/s 766 mmHg 78%
    02:00 +21°C° 0 mm 1 m/s 766 mmHg 79%
    03:00 +21°C° 0 mm 1 m/s 766 mmHg 79%
    04:00 +22°C° 0 mm 1 m/s 766 mmHg 76%
    05:00 +20°C° 0 mm 0 m/s 767 mmHg 73%
    06:00 +21°C° 0 mm 0 m/s 767 mmHg 70%
    07:00 +24°C° 0 mm 1 m/s 767 mmHg 63%
    08:00 +25°C° 0 mm 1 m/s 767 mmHg 57%
    09:00 +26°C° 0 mm 1 m/s 767 mmHg 50%
    10:00 +27°C° 0 mm 2 m/s 767 mmHg 47%
    11:00 +28°C° 0 mm 3 m/s 767 mmHg 44%
    12:00 +28°C° 0 mm 4 m/s 767 mmHg 40%
    13:00 +28°C° 0 mm 4 m/s 766 mmHg 41%
    14:00 +28°C° 0 mm 5 m/s 766 mmHg 43%
    15:00 +28°C° 0 mm 5 m/s 766 mmHg 44%
    16:00 +27°C° 0 mm 4 m/s 766 mmHg 47%
    17:00 +26°C° 0 mm 4 m/s 766 mmHg 51%
    18:00 +25°C° 0 mm 4 m/s 766 mmHg 54%
    19:00 +25°C° 0 mm 3 m/s 766 mmHg 59%
    20:00 +24°C° 0 mm 2 m/s 767 mmHg 63%
    21:00 +23°C° 0 mm 1 m/s 767 mmHg 68%
    22:00 +23°C° 0 mm 1 m/s 767 mmHg 70%
    23:00 +23°C° 0 mm 1 m/s 767 mmHg 72%

    Depois de amanhã, 29 Maio, Quarta-feira

    Tempo Temperatura Precipitação Vento Pressão Humidade
    00:00 +22°C° 0 mm 1 m/s 767 mmHg 74%
    01:00 +22°C° 0 mm 1 m/s 767 mmHg 75%
    02:00 +22°C° 0 mm 1 m/s 766 mmHg 76%
    03:00 +21°C° 0 mm 2 m/s 766 mmHg 77%
    04:00 +22°C° 0 mm 1 m/s 766 mmHg 76%
    05:00 +22°C° 0 mm 1 m/s 767 mmHg 74%
    06:00 +23°C° 0 mm 1 m/s 767 mmHg 72%
    07:00 +24°C° 0 mm 1 m/s 767 mmHg 68%
    08:00 +25°C° 0 mm 1 m/s 767 mmHg 63%
    09:00 +26°C° 0 mm 1 m/s 767 mmHg 58%
    10:00 +27°C° 0 mm 2 m/s 767 mmHg 55%
    11:00 +27°C° 0 mm 2 m/s 766 mmHg 52%
    12:00 +28°C° 0 mm 3 m/s 766 mmHg 49%
    13:00 +28°C° 0 mm 4 m/s 766 mmHg 49%
    14:00 +28°C° 0 mm 4 m/s 766 mmHg 50%
    15:00 +28°C° 0 mm 5 m/s 765 mmHg 50%
    16:00 +27°C° 0 mm 5 m/s 765 mmHg 53%
    17:00 +26°C° 0 mm 4 m/s 765 mmHg 56%
    18:00 +25°C° 0 mm 4 m/s 765 mmHg 58%
    19:00 +25°C° 0 mm 3 m/s 766 mmHg 62%
    20:00 +24°C° 0 mm 3 m/s 766 mmHg 65%
    21:00 +23°C° 0 mm 2 m/s 766 mmHg 68%
    22:00 +23°C° 0 mm 2 m/s 766 mmHg 69%
    23:00 +23°C° 0 mm 1 m/s 766 mmHg 69%

    30 Maio, Quinta-feira

    Tempo Temperatura Precipitação Vento Pressão Humidade
    00:00 +22°C° 0 mm 1 m/s 765 mmHg 70%
    01:00 +22°C° 0 mm 1 m/s 765 mmHg 70%
    02:00 +22°C° 0 mm 1 m/s 765 mmHg 71%
    03:00 +19°C° 0 mm 0 m/s 765 mmHg 71%
    04:00 +22°C° 0 mm 1 m/s 765 mmHg 68%
    05:00 +23°C° 0 mm 1 m/s 765 mmHg 65%
    06:00 +23°C° 0 mm 1 m/s 765 mmHg 62%
    07:00 +24°C° 0 mm 1 m/s 765 mmHg 58%
    08:00 +26°C° 0 mm 1 m/s 765 mmHg 53%
    09:00 +27°C° 0 mm 1 m/s 765 mmHg 49%
    10:00 +28°C° 0 mm 2 m/s 765 mmHg 46%
    11:00 +28°C° 0 mm 3 m/s 765 mmHg 43%
    12:00 +29°C° 0 mm 4 m/s 764 mmHg 41%
    13:00 +29°C° 0 mm 4 m/s 764 mmHg 42%
    14:00 +29°C° 0 mm 5 m/s 764 mmHg 43%
    15:00 +29°C° 0 mm 6 m/s 764 mmHg 44%
    16:00 +28°C° 0 mm 5 m/s 764 mmHg 49%
    17:00 +27°C° 0 mm 5 m/s 764 mmHg 54%
    18:00 +26°C° 0 mm 5 m/s 764 mmHg 58%
    19:00 +25°C° 0 mm 5 m/s 764 mmHg 63%
    20:00 +23°C° 0 mm 4 m/s 765 mmHg 68%
    21:00 +23°C° 0 mm 4 m/s 765 mmHg 73%
    22:00 +22°C° 0 mm 3 m/s 765 mmHg 74%
    23:00 +23°C° 0 mm 2 m/s 764 mmHg 75%

    31 Maio, Sexta-feira

    Tempo Temperatura Precipitação Vento Pressão Humidade
    00:00 +21°C° 0 mm 2 m/s 764 mmHg 76%
    01:00 +22°C° 0 mm 1 m/s 764 mmHg 76%
    02:00 +22°C° 0 mm 1 m/s 764 mmHg 77%
    03:00 +21°C° 0 mm 1 m/s 764 mmHg 78%
    04:00 +22°C° 0 mm 1 m/s 764 mmHg 75%
    05:00 +23°C° 0 mm 1 m/s 764 mmHg 71%
    06:00 +23°C° 0 mm 1 m/s 764 mmHg 68%
    07:00 +24°C° 0 mm 1 m/s 764 mmHg 62%
    08:00 +26°C° 0 mm 1 m/s 764 mmHg 55%
    09:00 +27°C° 0 mm 2 m/s 764 mmHg 49%
    10:00 +28°C° 0 mm 3 m/s 764 mmHg 47%
    11:00 +29°C° 0 mm 3 m/s 763 mmHg 45%
    12:00 +29°C° 0 mm 4 m/s 763 mmHg 43%
    13:00 +29°C° 0 mm 5 m/s 763 mmHg 44%
    14:00 +29°C° 0 mm 5 m/s 762 mmHg 46%
    15:00 +29°C° 0 mm 6 m/s 762 mmHg 47%
    16:00 +28°C° 0 mm 6 m/s 762 mmHg 51%
    17:00 +27°C° 0 mm 5 m/s 762 mmHg 56%
    18:00 +26°C° 0 mm 5 m/s 762 mmHg 60%
    19:00 +25°C° 0 mm 5 m/s 763 mmHg 65%
    20:00 +23°C° 0 mm 5 m/s 763 mmHg 69%
    21:00 +23°C° 0 mm 5 m/s 763 mmHg 73%
    22:00 +22°C° 0 mm 4 m/s 763 mmHg 76%
    23:00 +22°C° 0 mm 4 m/s 763 mmHg 78%

    1 Junho, Sábado

    Tempo Temperatura Precipitação Vento Pressão Humidade
    00:00 +22°C° 0 mm 3 m/s 762 mmHg 80%
    01:00 +21°C° 0 mm 3 m/s 762 mmHg 81%
    02:00 +21°C° 0 mm 2 m/s 762 mmHg 83%
    03:00 +21°C° 0 mm 2 m/s 762 mmHg 84%
    04:00 +21°C° 0 mm 2 m/s 762 mmHg 81%
    05:00 +23°C° 0 mm 2 m/s 762 mmHg 78%
    06:00 +24°C° 0 mm 2 m/s 762 mmHg 75%
    07:00 +25°C° 0 mm 3 m/s 762 mmHg 68%
    08:00 +26°C° 0 mm 3 m/s 762 mmHg 60%
    09:00 +27°C° 0 mm 3 m/s 762 mmHg 53%
    10:00 +28°C° 0 mm 4 m/s 762 mmHg 50%
    11:00 +28°C° 0 mm 4 m/s 762 mmHg 47%
    12:00 +29°C° 0 mm 5 m/s 762 mmHg 44%
    13:00 +29°C° 0 mm 5 m/s 762 mmHg 44%
    14:00 +29°C° 0 mm 5 m/s 761 mmHg 43%
    15:00 +28°C° 0 mm 5 m/s 761 mmHg 43%
    16:00 +28°C° 0 mm 5 m/s 761 mmHg 47%
    17:00 +27°C° 0 mm 5 m/s 761 mmHg 51%
    18:00 +26°C° 0 mm 5 m/s 761 mmHg 54%
    19:00 +25°C° 0 mm 4 m/s 761 mmHg 58%
    20:00 +25°C° 0 mm 4 m/s 762 mmHg 62%
    21:00 +24°C° 0 mm 3 m/s 762 mmHg 66%
    22:00 +24°C° 0 mm 3 m/s 762 mmHg 68%
    23:00 +23°C° 0 mm 2 m/s 762 mmHg 69%
    Mostrar mais